Wind_Speed
23 24 25 25 25 25 25 25 25 24 25 27 28 28 29 30 30 31 30 30 31 31 30 30 29 29 29 28 28 28 27 27 27 27 26 27 27 28
22 22 23 23 23 23 25 25 26 25 24 26 27 27 28 28 29 29 30 30 29 30 30 30 30 29 29 29 29 29 28 27 26 26 26 26 27 27
19 19 19 20 21 21 22 22 23 24 24 24 25 26 27 28 28 28 28 27 27 28 28 28 28 28 28 28 28 28 27 27 26 25 25 26 26 26
16 16 16 17 18 19 20 21 21 21 22 22 22 23 24 25 25 26 26 26 26 26 26 26 27 27 27 26 26 26 26 26 25 25 25 25 26 25
13 13 14 15 16 17 17 18 18 19 19 19 20 21 21 22 22 22 22 23 24 24 25 25 25 25 25 24 24 24 24 23 23 23 23 24 24 25
13 13 14 13 14 15 14 14 15 16 16 17 17 18 19 19 18 18 19 20 21 21 21 21 21 21 21 21 21 21 21 21 22 22 22 22 22 23
12 12 12 12 12 12 12 12 13 13 13 14 14 15 17 17 17 17 17 18 18 19 19 19 20 20 20 20 19 19 18 19 19 20 20 20 20 21
9 9 9 9 10 10 10 10 10 11 11 11 11 12 13 14 14 15 16 16 16 16 17 17 18 18 18 17 17 17 17 18 18 19 20 20 21 21
6 6 6 6 6 6 6 7 7 7 8 10 9 9 9 11 11 12 12 14 15 15 14 13 14 15 15 15 15 15 16 17 18 18 19 19 20 20
5 5 4 4 3 3 3 4 4 4 5 6 8 8 8 8 9 10 11 11 13 13 13 13 13 13 13 13 14 14 15 16 16 16 17 17 18 18
5 4 3 2 2 2 2 2 3 3 3 3 4 5 5 7 8 9 9 10 11 12 12 13 13 13 13 14 14 14 14 15 15 16 17 17 17 18
5 4 3 2 2 2 2 2 2 2 2 2 3 4 4 5 6 7 8 9 10 10 11 12 13 13 14 14 14 14 14 15 15 16 17 17 17 18
5 4 3 2 3 2 2 1 1 2 2 3 3 4 4 5 6 7 8 8 9 10 11 12 12 13 13 14 14 14 14 15 16 17 17 17 18 18
5 4 4 3 3 2 1 1 2 2 3 3 4 5 5 6 6 7 8 9 9 10 11 12 12 12 12 13 13 14 15 15 16 16 17 17 18 19
4 4 5 4 3 2 2 1 2 2 3 4 5 6 6 7 7 8 8 8 9 9 10 11 11 11 12 12 13 14 14 15 16 16 17 18 19 20
4 4 4 4 4 3 3 2 3 3 3 3 4 5 6 6 6 6 7 8 9 9 10 9 10 11 12 12 13 14 15 16 17 18 19 20 21 22
4 4 4 4 4 4 4 4 4 4 4 4 5 5 4 5 6 6 7 8 9 9 10 11 12 13 14 15 16 16 17 18 19 20 21 21 22 23
5 4 4 4 4 4 5 5 5 5 5 5 6 6 6 6 7 8 9 9 10 11 12 13 14 15 16 16 16 17 18 19 20 21 22 23 23 24
5 5 5 5 5 5 6 6 6 7 7 7 7 7 8 8 9 10 10 11 12 13 14 15 16 16 17 17 17 19 20 20 21 22 23 24 24 25
6 6 5 5 5 6 6 7 7 8 8 9 9 9 10 10 11 12 13 13 14 15 15 16 17 17 18 18 19 20 21 22 23 23 24 25 26 27
7 7 7 7 7 7 8 8 8 8 9 10 11 11 12 13 13 14 15 15 16 16 17 18 18 19 20 21 22 22 23 24 25 25 26 27 27 28
8 9 9 9 9 9 9 10 10 11 11 12 12 13 14 15 15 16 17 18 18 18 19 20 21 22 23 24 24 25 25 25 26 27 27 28 29 30
11 12 12 12 12 12 12 12 13 13 14 15 15 16 17 18 18 19 20 20 21 21 22 23 23 24 24 25 26 27 27 28 28 29 30 30 31 31
Wind_Direction
276 273 269 268 265 260 259 261 261 259 258 256 257 257 256 257 258 257 257 257 257 258 258 257 259 261 263 263 264 266 268 269 270 270 269 270 270 269
276 273 270 267 267 263 262 262 261 260 260 258 257 256 255 257 258 259 258 258 258 257 256 256 258 260 262 263 265 266 268 270 270 272 271 271 269 270
278 274 271 268 265 263 261 262 262 263 260 258 257 257 257 257 258 258 257 255 256 255 255 258 259 260 261 262 264 265 266 269 270 270 271 271 270 271
278 275 272 268 265 264 262 262 262 262 261 258 256 256 256 255 257 258 254 254 254 254 256 258 259 259 261 261 263 264 264 266 267 269 270 271 273 274
278 277 275 270 266 265 266 264 261 260 258 256 254 254 254 254 255 254 251 250 251 253 255 257 258 259 259 260 260 262 263 265 267 270 271 273 275 276
282 279 277 272 268 265 265 263 260 260 257 255 253 251 251 251 251 249 249 248 249 251 254 256 256 257 258 258 259 261 264 266 267 268 271 273 274 275
284 279 276 273 272 269 265 262 260 259 257 254 250 250 249 249 249 247 248 248 248 252 254 255 255 255 254 255 257 259 263 266 266 267 269 270 273 276
293 287 280 278 274 272 269 265 263 260 256 249 250 251 249 248 247 248 250 247 250 253 254 252 249 249 249 252 256 261 264 266 268 270 272 275 278 280
306 299 292 288 281 273 266 264 258 255 253 249 252 253 250 244 244 246 249 249 247 250 251 252 253 253 253 255 260 263 267 270 271 273 273 274 277 277
333 314 295 296 290 275 271 267 253 248 249 249 250 251 248 243 245 247 249 247 243 245 250 253 257 260 259 259 264 268 272 271 271 270 273 274 276 278
348 339 328 327 323 305 292 278 261 256 242 241 243 247 253 247 245 248 248 245 245 250 256 260 262 265 265 265 265 267 270 272 273 274 274 276 278 280
1 357 354 344 335 328 322 301 262 249 240 236 242 249 257 262 254 251 251 251 252 255 258 263 264 263 264 265 266 267 270 272 273 274 276 277 279 280
359 357 348 341 344 343 335 317 267 251 246 243 244 253 260 264 260 254 254 255 256 257 260 263 264 264 262 263 266 266 270 274 276 276 277 278 279 281
360 2 359 348 338 335 336 326 293 265 257 254 254 260 262 264 264 264 262 262 262 263 263 264 264 264 266 268 269 270 272 276 278 280 282 282 283 285
351 358 0 358 352 348 344 339 325 299 285 274 268 267 265 262 263 267 266 266 267 265 265 265 261 264 268 269 271 275 278 279 281 283 285 285 287 288
341 346 350 354 355 347 337 336 342 334 322 301 292 279 269 267 266 267 270 269 268 271 271 268 266 269 272 273 274 278 281 282 284 286 287 288 289 290
356 355 352 351 346 343 340 338 332 327 315 303 299 296 288 284 280 282 284 278 276 276 277 275 276 276 277 278 276 278 281 283 286 287 287 288 290 292
357 353 351 346 339 332 324 319 314 309 306 303 299 294 287 285 286 286 288 287 288 287 284 282 281 281 280 280 280 280 283 285 287 288 289 290 291 291
356 352 343 334 331 327 321 317 310 303 298 296 295 291 287 288 289 291 292 292 292 290 289 288 286 285 284 284 285 286 288 290 291 292 292 292 293 293
339 336 331 324 320 320 318 316 312 305 297 292 291 289 289 291 292 292 293 294 292 290 291 291 290 287 287 289 290 291 292 293 293 293 293 294 294 294
334 329 324 321 313 309 309 307 305 303 301 296 291 289 290 290 291 292 293 293 292 291 291 290 288 287 288 290 292 292 293 293 293 293 294 294 295 295
328 323 318 314 309 306 305 303 300 297 297 297 294 292 292 293 294 294 294 292 290 290 291 292 292 290 290 291 293 293 293 293 294 294 295 295 296 297
316 314 312 311 306 303 301 300 300 298 297 296 294 291 290 290 291 291 292 293 293 293 293 293 293 294 293 294 293 293 293 294 294 295 295 296 296 296
Height
5751 5750 5749 5749 5750 5750 5751 5752 5753 5754 5755 5756 5757 5758 5760 5762 5763 5765 5768 5770 5771 5773 5774 5776 5777 5778 5779 5779 5780 5780 5781 5781 5781 5781 5780 5780 5780 5780
5744 5743 5743 5743 5743 5744 5745 5746 5746 5747 5748 5749 5750 5751 5752 5754 5756 5758 5760 5762 5763 5765 5767 5768 5770 5770 5771 5772 5773 5773 5774 5774 5774 5774 5774 5774 5774 5773
5738 5737 5737 5737 5737 5738 5738 5739 5739 5740 5741 5742 5742 5744 5745 5747 5748 5750 5752 5754 5756 5758 5759 5761 5762 5763 5764 5765 5766 5766 5767 5767 5767 5767 5767 5767 5766 5766
5733 5733 5732 5732 5732 5732 5733 5733 5733 5734 5734 5735 5736 5737 5738 5740 5742 5743 5745 5747 5749 5751 5753 5754 5755 5756 5757 5758 5759 5759 5760 5760 5760 5760 5760 5760 5760 5759
5729 5728 5728 5727 5727 5727 5727 5728 5728 5728 5729 5730 5730 5732 5733 5734 5736 5737 5739 5741 5743 5744 5746 5747 5748 5749 5750 5751 5752 5753 5753 5754 5754 5754 5753 5753 5753 5752
5725 5724 5724 5723 5723 5723 5723 5723 5723 5724 5724 5725 5726 5726 5728 5729 5730 5732 5733 5735 5737 5738 5740 5741 5742 5743 5744 5745 5746 5747 5747 5747 5747 5747 5747 5747 5746 5746
5722 5721 5720 5720 5719 5719 5720 5720 5720 5720 5720 5721 5721 5722 5723 5724 5725 5727 5729 5730 5732 5733 5734 5736 5737 5738 5738 5739 5740 5741 5741 5741 5741 5741 5741 5741 5740 5740
5719 5718 5717 5717 5717 5717 5717 5717 5717 5717 5718 5718 5719 5719 5720 5721 5722 5723 5725 5726 5728 5729 5730 5731 5732 5732 5733 5734 5735 5735 5736 5736 5736 5736 5735 5735 5734 5734
5717 5716 5715 5715 5715 5714 5714 5714 5715 5715 5715 5716 5716 5716 5717 5718 5719 5720 5721 5723 5724 5725 5726 5727 5728 5728 5729 5729 5730 5731 5731 5731 5730 5730 5730 5729 5729 5728
5716 5715 5714 5714 5714 5713 5713 5713 5714 5713 5713 5714 5714 5715 5715 5716 5717 5718 5719 5720 5721 5722 5723 5724 5724 5724 5725 5725 5726 5726 5726 5725 5725 5725 5724 5724 5723 5723
5716 5715 5714 5713 5713 5713 5712 5712 5712 5712 5712 5713 5713 5713 5714 5715 5715 5716 5716 5717 5718 5719 5720 5720 5720 5721 5721 5721 5721 5721 5721 5721 5720 5720 5719 5719 5718 5717
5716 5715 5714 5713 5713 5713 5712 5712 5712 5712 5712 5712 5713 5713 5713 5713 5713 5714 5714 5715 5716 5716 5716 5717 5717 5717 5718 5717 5717 5717 5717 5716 5716 5715 5714 5713 5712 5711
5716 5715 5714 5714 5713 5712 5712 5712 5711 5711 5711 5712 5712 5712 5712 5712 5712 5712 5712 5713 5713 5714 5714 5714 5714 5714 5714 5714 5713 5713 5712 5712 5711 5710 5709 5708 5707 5706
5716 5715 5714 5714 5713 5712 5712 5712 5711 5711 5711 5711 5711 5711 5711 5711 5711 5711 5710 5710 5711 5711 5711 5710 5710 5710 5710 5709 5709 5708 5708 5707 5706 5705 5704 5703 5701 5700
5717 5716 5715 5714 5713 5712 5712 5711 5711 5711 5710 5710 5710 5710 5709 5709 5709 5709 5709 5708 5708 5708 5708 5707 5707 5706 5706 5705 5705 5704 5703 5702 5701 5700 5699 5697 5696 5694
5717 5716 5715 5714 5713 5712 5712 5711 5711 5710 5709 5709 5709 5708 5708 5708 5707 5707 5707 5706 5706 5705 5705 5704 5704 5703 5702 5702 5701 5700 5699 5698 5696 5695 5693 5691 5689 5687
5716 5716 5715 5714 5713 5712 5712 5711 5710 5710 5709 5708 5708 5707 5707 5706 5706 5705 5705 5704 5703 5703 5702 5701 5700 5699 5698 5698 5697 5695 5694 5693 5691 5689 5687 5685 5683 5681
5717 5716 5715 5714 5713 5712 5711 5711 5710 5709 5708 5708 5707 5706 5705 5705 5704 5703 5702 5701 5700 5699 5698 5697 5696 5695 5694 5693 5692 5690 5688 5687 5685 5683 5680 5678 5676 5674
5717 5716 5715 5714 5713 5712 5711 5710 5709 5708 5707 5706 5705 5704 5703 5702 5701 5700 5699 5698 5697 5696 5695 5693 5692 5690 5689 5688 5686 5684 5682 5680 5678 5676 5673 5671 5668 5666
5717 5715 5714 5713 5712 5711 5710 5708 5707 5706 5705 5704 5703 5702 5701 5700 5699 5697 5696 5695 5693 5692 5690 5689 5687 5685 5683 5682 5680 5679 5676 5674 5671 5669 5666 5663 5661 5658
5716 5714 5713 5712 5710 5709 5708 5707 5705 5704 5703 5701 5700 5699 5698 5696 5695 5693 5692 5690 5689 5687 5685 5684 5682 5680 5677 5675 5674 5672 5670 5667 5664 5661 5658 5656 5653 5650
5715 5713 5712 5710 5708 5707 5706 5704 5703 5701 5700 5698 5697 5695 5694 5692 5691 5689 5687 5685 5683 5681 5680 5678 5676 5673 5671 5669 5666 5664 5662 5659 5656 5653 5651 5648 5644 5641
5713 5711 5709 5707 5706 5704 5702 5701 5699 5697 5696 5694 5693 5691 5689 5687 5686 5684 5682 5680 5677 5675 5673 5671 5669 5666 5664 5661 5659 5656 5653 5650 5648 5645 5642 5639 5636 5632